{"data":{"norad_id":56705,"intl_designator":"2023-067T","name":"STARLINK-30080","alt_names":[],"object_type":"PAYLOAD","status":"ACTIVE","operator":null,"country":"US","launch_date":"2023-05-19","launch_site_code":"AFETR","launch_vehicle":null,"mission":null,"orbit_class":"UNKNOWN","rcs_meters":null,"size_class":null,"mass_kg":null,"dimensions":null,"purposes":["comms"],"wikipedia_slug":null,"has_3d_model":false,"image_url":null,"decayed_at":null,"tle_current":{"epoch":"2026-09-20T22:38:54.345120Z","epoch_age_seconds":76495,"freshness":"FRESH","line1":"1 56705U 23067T   26263.94368455  .00000104  00000+0  13302-4 0  9991","line2":"2 56705  43.0032 240.3684 0001491 278.4438  81.6245 15.27576251185657","mean_motion":15.27576251,"eccentricity":0.0001491,"inclination_deg":43.0032,"raan_deg":240.3684,"arg_perigee_deg":278.4438,"mean_anomaly_deg":81.6245,"bstar":1.3302e-5,"rev_number":18565,"period_min":94.266980064486,"perigee_km":482.03731739661,"apogee_km":484.08332643801,"semimajor_km":6861.1973219173,"source":"CELESTRAK","updated_at":"2026-09-21T09:00:33.484077Z"}}}